WATER LEVELS

Guaranteed water level and forecast    Ústí nad Labem-Střekov

Guaranteed water level
Nad 275 cm
on 28.02.2021 more information
Forecast
325 cm
on 01.03.2021 07:00
Tendency
steady state
on 01.03.2021 metodika tendence
Forecast
(Source data ČHMÚ a Povodí Labe)

Ústí nad Labem

Date and time (UTC) H (cm) Q (m³/s)
1. 3. 2021 00:50 342 517
1. 3. 2021 00:00 343 520
28. 2. 2021 23:00 343 520
28. 2. 2021 22:00 343 520
28. 2. 2021 21:00 344 522
28. 2. 2021 20:00 345 525
28. 2. 2021 19:00 345 525
28. 2. 2021 18:00 342 517
28. 2. 2021 17:00 339 509
28. 2. 2021 16:00 338 507
28. 2. 2021 15:00 337 504
28. 2. 2021 14:00 335 499
28. 2. 2021 13:00 338 507
28. 2. 2021 12:00 333 494

H - water level, Q - discharge
more information

Mělník

Date and time (UTC) H (cm) Q (m³/s)
1. 3. 2021 00:50 312 -
1. 3. 2021 00:00 313 -
28. 2. 2021 23:00 313 -
28. 2. 2021 22:00 314 -
28. 2. 2021 21:00 313 -
28. 2. 2021 20:00 314 -
28. 2. 2021 19:00 314 -
28. 2. 2021 18:00 315 -
28. 2. 2021 17:00 316 -
28. 2. 2021 16:00 315 -
28. 2. 2021 15:00 313 -
28. 2. 2021 14:00 313 -
28. 2. 2021 13:00 315 -
28. 2. 2021 12:00 315 -

H - water level, Q - discharge
more information

Kostelec nad Labem

Date and time (UTC) H (cm) Q (m³/s)
1. 3. 2021 00:50 439 -
1. 3. 2021 00:00 440 180
28. 2. 2021 23:00 441 180
28. 2. 2021 22:00 443 187
28. 2. 2021 21:00 444 188
28. 2. 2021 20:00 444 191
28. 2. 2021 19:00 443 174
28. 2. 2021 18:00 448 191
28. 2. 2021 17:00 450 195
28. 2. 2021 16:00 451 199
28. 2. 2021 15:00 451 201
28. 2. 2021 14:00 448 199
28. 2. 2021 13:00 441 193
28. 2. 2021 12:00 442 194

H - water level, Q - discharge
more information

Přelouč

Date and time (UTC) H (cm) Q (m³/s)
1. 3. 2021 00:50 149 115
1. 3. 2021 00:00 149 115
28. 2. 2021 23:00 149 115
28. 2. 2021 22:00 148 114
28. 2. 2021 21:00 148 114
28. 2. 2021 20:00 148 114
28. 2. 2021 19:00 147 113
28. 2. 2021 18:00 147 113
28. 2. 2021 17:00 147 113
28. 2. 2021 16:00 147 113
28. 2. 2021 15:00 149 115
28. 2. 2021 14:00 151 118
28. 2. 2021 13:00 152 119
28. 2. 2021 12:00 152 119

H - water level, Q - discharge
more information

Praha-Chuchle

Date and time (UTC) H (cm) Q (m³/s)
1. 3. 2021 00:50 87 221
1. 3. 2021 00:00 87 221
28. 2. 2021 23:00 87 221
28. 2. 2021 22:00 87 221
28. 2. 2021 21:00 88 226
28. 2. 2021 20:00 88 226
28. 2. 2021 19:00 88 226
28. 2. 2021 18:00 88 226
28. 2. 2021 17:00 87 221
28. 2. 2021 16:00 88 226
28. 2. 2021 15:00 88 226
28. 2. 2021 14:00 87 221
28. 2. 2021 13:00 87 221
28. 2. 2021 12:00 87 221

H - water level, Q - discharge
more information

České Budějovice

Date and time (UTC) H (cm) Q (m³/s)
1. 3. 2021 00:50 106 23.3
1. 3. 2021 00:00 105 23
28. 2. 2021 23:00 106 23
28. 2. 2021 22:00 106 24
28. 2. 2021 21:00 106 23
28. 2. 2021 20:00 105 23
28. 2. 2021 19:00 106 23
28. 2. 2021 18:00 106 24
28. 2. 2021 17:00 105 23
28. 2. 2021 16:00 106 23
28. 2. 2021 15:00 105 23
28. 2. 2021 14:00 106 23
28. 2. 2021 13:00 105 23
28. 2. 2021 12:00 106 23

H - water level, Q - discharge
more information
Source data
Labe Basin Vltava Basin Povodí Moravy ČHMÚ